SCP
0 0 0 0 0 0 0 0 0 0 1 1 1 1 2 2 3 2 1 0 0 0 1 1 1 0 0 0 0 0 0 1 0 0 0 0 0 0 0 0 1 1 1 0
0 0 0 0 0 0 0 0 0 0 1 1 1 1 1 1 2 1 1 0 0 0 0 0 0 0 0 0 0 0 1 1 1 0 0 0 0 0 0 0 0 0 0 0
0 0 0 0 0 0 0 0 0 0 0 1 1 1 1 1 1 1 1 0 0 0 0 0 0 0 0 0 0 1 1 1 0 0 0 0 0 0 0 0 0 0 0 0
0 0 0 0 0 0 0 0 0 0 0 0 1 1 0 0 0 0 0 0 0 0 0 0 0 0 0 0 0 0 1 0 0 0 0 0 0 0 0 0 0 0 0 0
0 0 0 0 0 0 0 0 0 0 0 0 0 0 0 0 0 0 0 0 0 0 1 0 0 0 0 0 0 0 0 0 0 0 0 0 0 0 0 0 0 0 0 0
0 0 0 0 0 0 0 0 0 0 0 0 0 0 0 0 0 0 0 0 0 0 0 0 0 0 0 0 0 0 0 0 0 0 0 0 0 0 0 0 0 0 0 0
0 0 0 0 0 0 0 0 0 0 0 0 0 0 0 0 0 0 0 0 0 0 0 0 0 0 0 0 0 0 0 0 0 0 0 0 0 0 0 0 0 0 0 0
0 0 0 0 0 0 0 0 0 0 0 0 0 0 0 0 0 0 0 0 0 0 0 0 0 0 0 0 0 0 0 0 0 0 0 0 0 0 0 0 0 0 0 0
0 0 0 0 0 0 0 0 0 0 0 0 0 0 0 0 0 0 0 0 0 0 0 0 0 0 0 0 0 0 0 0 0 0 0 0 0 0 0 0 0 0 0 0
0 0 0 0 0 0 0 0 0 0 0 0 0 0 0 0 0 0 0 0 0 0 0 0 0 0 0 0 0 0 0 0 0 0 0 0 0 0 0 0 0 0 0 0
0 0 0 0 0 0 0 0 0 0 0 0 0 0 0 0 0 0 0 0 0 0 0 0 0 0 0 0 0 0 0 0 0 0 0 0 0 0 0 0 0 0 0 0
0 0 0 0 0 0 0 0 0 0 0 0 0 0 0 0 0 0 0 0 0 0 0 0 0 0 0 0 0 0 0 0 0 0 0 0 0 0 0 0 0 0 0 0
0 0 0 0 0 0 0 0 0 0 0 0 0 0 0 0 0 0 0 0 0 0 0 0 0 0 0 0 0 0 0 0 0 0 0 0 0 0 0 0 0 0 0 0
0 0 0 0 0 0 0 0 0 0 0 0 0 0 0 0 0 0 0 0 0 0 0 0 0 0 0 0 0 0 0 0 0 0 0 0 0 0 0 0 0 0 0 0
0 0 0 0 0 0 0 0 0 0 0 0 0 0 0 0 0 0 0 0 0 0 0 0 0 0 0 0 0 0 0 0 0 0 0 0 0 0 0 0 0 0 0 0
0 0 0 0 0 0 0 0 0 0 0 0 0 0 0 0 0 0 0 0 0 0 0 0 0 0 0 0 0 0 0 0 0 0 0 0 0 0 0 0 0 0 0 0
0 0 0 0 0 0 0 0 0 0 0 0 0 0 0 0 0 0 0 0 0 0 0 0 0 0 0 0 0 0 0 0 0 0 0 0 0 0 0 0 0 0 0 0
0 0 0 0 0 0 0 0 0 0 0 0 0 0 0 0 0 0 0 0 0 0 0 0 0 0 0 0 0 0 0 0 0 0 0 0 0 0 0 0 0 0 0 0
0 0 0 0 0 0 0 0 0 0 0 0 0 0 0 0 0 0 0 0 0 0 0 0 0 0 0 0 0 0 0 0 0 0 0 0 0 0 0 0 0 0 0 0
0 0 0 0 0 0 0 0 0 0 0 0 0 0 0 0 0 0 0 0 0 0 0 0 0 0 0 0 0 0 0 0 0 0 0 0 0 0 0 0 0 0 0 0
0 0 0 0 0 0 0 0 0 0 0 0 0 0 0 0 0 0 0 0 0 0 0 0 0 0 0 0 0 0 0 0 0 0 0 0 0 0 0 0 0 0 0 0
0 0 0 0 0 0 0 0 0 0 0 0 0 0 0 0 0 0 0 0 0 0 0 0 0 0 0 0 0 0 0 0 0 0 0 0 0 0 0 0 0 0 0 0
0 0 0 0 0 0 0 0 0 0 0 0 0 0 0 0 0 0 0 0 0 0 0 0 0 0 0 0 0 0 0 0 0 0 0 0 0 0 0 0 0 0 0 0
0 0 0 0 0 0 0 0 0 0 0 0 0 0 0 0 0 0 0 0 0 0 0 0 0 0 0 0 0 0 0 0 0 0 0 0 0 0 0 0 0 0 0 0
0 0 0 0 0 0 0 0 0 0 0 0 0 0 0 0 0 0 0 0 0 0 0 0 0 0 0 0 0 0 0 0 0 0 0 0 0 0 0 0 0 0 0 0
0 0 0 0 0 0 0 0 0 0 0 0 0 0 0 0 0 0 0 0 0 0 0 0 0 0 0 0 0 0 0 0 0 0 0 0 0 0 0 0 0 0 0 0
Wind_Speed
0 2 3 6 6 5 1 1 1 0 3 7 7 5 3 4 4 1 1 4 5 5 6 6 6 6 5 4 4 4 4 3 2 2 2 2 2 3 3 3 3 2 2 2
4 4 8 6 2 1 2 1 1 1 3 5 6 5 2 2 1 3 5 6 7 6 5 6 7 6 6 5 5 5 4 3 2 2 1 1 1 2 1 2 3 3 3 4
4 6 5 4 2 2 1 4 5 4 4 4 4 2 2 2 3 5 6 7 8 9 9 8 7 7 6 6 6 6 5 4 3 2 1 1 2 3 3 3 3 4 5 5
2 4 4 5 3 3 4 6 8 8 6 1 1 2 4 3 4 5 6 6 8 8 8 7 7 7 7 6 5 5 5 4 3 3 2 2 1 1 3 2 3 5 5 6
4 3 2 3 4 5 4 4 7 7 6 4 2 1 4 2 4 6 6 7 8 9 9 8 7 6 5 4 4 4 4 3 3 3 3 2 1 2 3 3 4 5 5 5
4 3 3 4 2 6 9 9 7 5 5 3 1 0 5 4 5 4 5 6 7 7 6 4 3 3 2 3 3 4 4 2 2 2 2 2 3 3 3 4 4 4 3 4
7 5 2 2 3 3 5 6 4 5 5 1 2 1 7 7 6 7 7 7 6 4 4 4 4 3 3 4 3 3 3 2 2 1 2 3 3 3 3 4 3 3 3 3
3 6 4 1 3 3 2 8 7 3 3 1 1 3 8 7 6 7 8 6 3 4 4 5 5 5 4 4 3 3 2 2 2 2 3 3 3 2 3 4 3 4 3 4
2 5 6 3 0 4 2 1 6 8 4 3 2 4 8 5 5 4 4 4 5 5 6 6 5 5 4 3 2 3 2 2 3 3 3 3 3 3 4 4 4 4 4 4
4 2 5 4 6 5 3 4 6 6 5 2 2 4 5 6 5 3 4 5 5 5 5 5 4 4 3 3 2 2 2 3 3 4 3 3 3 4 4 4 5 5 5 5
3 2 5 5 2 1 2 3 5 4 6 6 3 6 7 9 7 7 7 7 7 7 6 5 4 3 3 2 2 2 2 3 3 4 4 4 4 5 5 5 6 6 5 6
1 5 2 5 5 2 2 4 6 5 0 4 4 5 3 8 8 9 8 7 7 7 5 4 4 3 2 2 2 3 4 4 4 4 4 4 5 5 5 6 6 6 6 6
4 6 4 9 10 6 1 1 5 6 5 4 5 4 2 5 6 7 8 7 7 6 5 3 2 2 3 3 4 4 5 5 5 4 4 4 5 5 6 6 7 6 6 7
6 5 5 5 8 6 4 2 4 6 4 4 6 7 5 6 7 6 7 8 7 6 5 4 2 3 4 4 5 5 5 5 5 4 4 5 6 6 6 7 6 7 7 7
5 2 2 4 5 5 5 3 3 5 8 7 7 9 10 10 9 9 8 7 6 5 4 4 3 3 4 4 5 5 5 4 4 4 5 6 6 6 6 6 7 7 7 8
3 2 2 5 7 8 7 4 0 3 5 6 8 5 7 6 5 5 6 7 6 5 4 3 2 3 4 4 5 4 4 5 4 4 5 6 6 6 6 6 7 7 7 7
2 4 2 3 7 6 5 3 2 2 4 8 7 7 6 5 6 6 7 7 6 5 4 3 3 4 4 5 4 4 4 4 4 5 5 5 5 6 7 7 7 7 8 7
6 5 4 1 4 3 9 5 3 5 3 5 7 6 7 7 6 5 7 7 7 6 5 4 4 4 4 3 3 3 3 4 4 5 5 5 6 7 7 7 8 8 7 7
7 7 4 3 1 6 7 4 3 6 2 4 8 7 7 6 4 2 6 7 7 6 5 5 4 4 3 4 3 3 4 4 5 5 5 6 6 7 8 8 9 8 7 8
4 6 5 4 3 5 8 5 4 9 1 4 8 8 9 8 2 5 7 6 6 5 4 3 3 2 2 4 3 2 4 5 5 6 6 6 7 7 8 9 9 8 7 8
2 2 3 4 5 8 8 4 3 2 8 8 9 9 8 8 8 7 7 7 6 5 4 3 2 1 3 4 2 3 4 5 5 5 6 7 7 7 9 8 7 8 8 8
4 3 3 3 3 8 7 3 5 10 6 8 8 8 8 8 7 7 8 8 7 5 4 3 2 2 4 3 2 4 5 5 5 5 6 7 8 8 8 8 9 8 7 7
3 7 6 7 9 10 7 9 8 8 8 9 9 9 10 9 8 9 8 8 6 6 4 3 3 3 4 3 3 4 5 4 4 5 7 8 8 8 7 7 9 8 6 5
5 2 2 3 8 8 8 6 5 8 9 10 10 10 11 10 9 9 8 7 6 5 4 3 2 2 4 4 4 4 4 4 4 5 7 7 8 8 8 6 6 6 6 5
7 3 2 5 7 6 5 5 7 7 8 8 9 10 12 12 10 10 8 8 7 6 5 4 4 4 5 5 4 4 3 3 4 6 6 7 7 7 8 7 6 7 6 6
5 5 4 7 9 6 7 7 6 7 9 11 11 9 9 11 11 10 9 8 7 6 5 4 4 4 4 4 4 4 3 3 4 5 6 6 6 6 6 7 8 9 8 10
Wind_Direction
46 101 243 235 195 189 169 113 110 133 47 71 81 78 40 44 58 63 164 161 159 165 173 170 172 169 165 164 153 148 138 129 102 69 54 30 353 334 337 329 316 312 301 296
13 286 252 243 225 110 64 115 164 66 65 83 92 81 54 73 188 234 216 194 181 184 188 190 191 189 185 183 176 168 165 158 145 139 146 165 231 291 298 332 340 323 308 296
189 254 287 317 335 53 276 189 189 150 94 65 97 38 334 271 239 229 216 204 189 190 197 202 198 195 191 194 189 179 176 167 164 147 105 36 17 354 352 342 327 316 308 297
283 280 327 329 297 175 225 209 179 157 128 82 121 201 256 258 264 236 220 209 204 204 202 207 205 198 197 199 185 173 170 165 167 153 140 150 177 268 266 271 287 303 309 309
243 245 278 271 254 170 194 147 130 132 125 100 16 124 275 276 255 249 241 229 214 207 202 205 204 194 190 178 164 160 155 163 175 171 171 178 228 243 266 291 310 313 317 323
252 235 211 220 220 147 123 90 69 63 77 68 315 107 278 237 232 256 250 237 221 206 195 186 168 144 131 116 121 134 143 170 196 196 206 214 245 262 285 303 309 310 312 316
337 328 284 162 79 95 108 99 54 17 26 303 287 269 263 256 240 235 250 244 227 196 166 151 137 115 109 110 116 129 143 182 224 226 253 258 257 256 261 272 276 284 294 299
346 316 297 258 164 172 156 131 145 175 190 242 296 254 266 275 262 240 237 234 200 148 137 132 130 127 129 129 128 138 154 200 244 256 268 272 272 252 251 255 255 264 264 268
210 277 298 296 22 122 91 104 151 124 102 105 261 288 298 284 275 242 203 163 150 140 136 136 139 142 144 138 149 162 170 219 257 263 269 275 268 256 260 268 267 267 267 274
180 265 313 334 36 19 121 134 85 94 123 129 226 235 234 233 224 198 158 151 151 148 145 143 151 158 163 166 175 181 192 225 250 262 261 254 256 260 264 270 276 275 275 277
104 114 324 1 41 283 19 62 99 108 140 141 190 253 225 195 186 166 169 170 167 163 161 166 169 172 176 182 195 220 244 260 271 266 257 262 265 265 268 266 267 267 268 271
74 108 338 295 287 252 176 172 137 128 223 136 145 265 273 163 167 161 171 176 172 167 170 173 176 184 203 229 249 253 258 262 257 252 252 257 263 268 269 267 266 263 263 264
97 89 37 347 341 342 324 194 145 129 114 123 136 236 248 151 159 168 169 173 175 175 174 177 190 218 240 250 258 260 260 259 258 256 260 270 272 270 267 266 266 264 261 262
108 104 146 199 243 265 288 275 154 123 134 169 176 177 190 178 177 188 185 185 185 182 179 185 215 249 257 258 260 265 269 265 262 261 268 274 272 268 266 266 267 266 263 262
97 122 241 257 284 320 311 291 190 159 171 165 182 174 198 196 192 196 192 183 169 171 177 183 206 241 259 266 273 274 273 271 267 270 275 274 273 274 273 275 274 273 270 271
101 143 12 327 320 330 322 315 29 137 138 131 132 180 210 199 184 180 172 157 156 170 178 184 207 247 267 270 272 278 276 274 271 276 279 280 285 287 286 283 280 277 275 272
144 131 102 291 313 353 317 277 169 145 154 151 168 190 178 170 177 172 162 157 168 180 186 201 231 248 260 262 262 266 269 276 286 287 289 292 295 294 288 290 291 283 279 274
153 132 136 226 9 310 259 273 125 104 59 126 130 150 164 169 168 176 175 170 180 186 195 221 239 253 259 261 267 272 283 292 293 296 298 301 300 296 294 292 288 284 278 275
154 144 141 144 217 275 294 301 154 120 59 135 135 150 155 147 110 245 210 186 186 192 198 213 224 229 252 269 272 288 302 301 301 300 301 299 298 298 301 299 293 288 283 281
98 117 135 161 192 245 251 258 140 100 144 210 156 158 160 148 135 249 222 192 189 191 194 204 219 232 275 277 275 295 300 301 296 293 293 294 294 297 298 295 290 287 281 279
35 50 162 201 222 255 241 226 107 133 227 207 176 169 162 172 196 210 187 188 189 185 187 180 184 248 271 274 276 292 295 287 281 288 295 297 297 297 294 290 287 289 288 287
190 190 222 181 204 258 240 194 186 214 202 182 178 175 171 185 190 174 173 182 181 177 181 176 189 263 277 276 271 286 285 276 284 295 300 299 300 303 308 299 297 294 290 289
193 191 190 187 214 235 225 208 211 174 173 185 180 180 167 169 175 174 177 179 182 182 192 197 202 259 284 278 260 269 272 278 294 305 306 303 305 304 298 295 297 300 295 288
288 223 178 265 267 256 247 237 208 183 185 184 175 174 170 171 175 172 172 179 184 192 198 197 206 256 279 276 270 253 264 278 296 304 304 304 307 308 305 300 293 292 292 289
254 293 316 291 285 305 292 239 213 202 186 175 174 178 176 168 171 172 176 183 189 194 200 192 202 234 260 272 271 265 265 282 301 303 302 305 303 301 305 304 295 290 279 265
240 222 210 242 248 224 246 248 220 195 194 188 182 184 181 171 172 170 176 183 184 189 189 193 210 232 257 266 263 264 256 268 295 303 306 305 305 305 304 306 310 302 287 285